Chehalis, WA
on Wednesday, December 26, 2012

Wednesday
Previous Day Next Day
Daily Summary
 ActualAverage (KOLM)Record (KOLM)
Temperature
Mean Temperature °F / °C 38°F / 3°C  
Max Temperature 44°F / 7°C 44°F / 7°C 62°F / 16°C (1980)
Min Temperature 39°F / 4°C 33°F / 1°C 17°F / -8°C (1948)
Degree Days
Heating Degree Days 24 27  
Month to date heating degree days 691  
Since 1 July heating degree days 2136  
Cooling Degree Days 0 0  
Month to date cooling degree days 0  
Year to date cooling degree days 106  
Moisture
Dew Point 40°F / 4°C   
Average Humidity 93    
Maximum Humidity 100    
Minimum Humidity 81    
Precipitation
Precipitation 0.12 in / 3.05 cm 0.24 in / 6.10 cm 2.45 in / 6.22 cm (1980)
Month to date precipitation 6.33  
Year to date precipitation 48.87  
Wind
Wind Speed 6 mph / 10 km/h   
Max Wind Speed 12 mph / 19 km/h   
Max Gust Speed 16 mph / 26 km/h   
Visibility 8 miles / 13 kilometers   
Events Rain   

Key: T is trace of precipitation, MM is missing value
Source: NWS Daily Summary
Time(PST)TemperatureDew PointHumidity Pressure Visibility Wind DirectionWind SpeedGust SpeedPrecipitationEvents Conditions
12:15 AM 41.0°F / 5.0°C 39.2°F / 4.0°C 93% 29.71 in / 1006.0 hPa 8.0 miles / 12.9 kilometers South 4.6 mph / 7.4 km/h - N/A   Overcast
12:35 AM 41.0°F / 5.0°C 39.2°F / 4.0°C 93% 29.71 in / 1006.0 hPa 10.0 miles / 16.1 kilometers SSE 4.6 mph / 7.4 km/h - N/A Rain Light Rain
12:55 AM 41.0°F / 5.0°C 39.2°F / 4.0°C 93% 29.71 in / 1006.0 hPa 9.0 miles / 14.5 kilometers SSE 4.6 mph / 7.4 km/h - N/A   Overcast
1:15 AM 41.0°F / 5.0°C 39.2°F / 4.0°C 93% 29.71 in / 1006.0 hPa 7.0 miles / 11.3 kilometers South 4.6 mph / 7.4 km/h - N/A Rain Light Rain
1:35 AM 41.0°F / 5.0°C 39.2°F / 4.0°C 93% 29.71 in / 1006.0 hPa 6.0 miles / 9.7 kilometers South 4.6 mph / 7.4 km/h - 0.02 in / 0.5 cm Rain Light Rain
1:55 AM 41.0°F / 5.0°C 39.2°F / 4.0°C 93% 29.72 in / 1006.3 hPa 6.0 miles / 9.7 kilometers South 3.5 mph / 5.6 km/h - 0.04 in / 1.0 cm Rain Light Rain
2:15 AM 41.0°F / 5.0°C 39.2°F / 4.0°C 93% 29.72 in / 1006.3 hPa 8.0 miles / 12.9 kilometers SW 3.5 mph / 5.6 km/h - N/A Rain Light Rain
2:35 AM 41.0°F / 5.0°C 39.2°F / 4.0°C 93% 29.73 in / 1006.7 hPa 10.0 miles / 16.1 kilometers South 4.6 mph / 7.4 km/h - N/A Rain Light Rain
2:55 AM 41.0°F / 5.0°C 39.2°F / 4.0°C 93% 29.73 in / 1006.7 hPa 8.0 miles / 12.9 kilometers South 4.6 mph / 7.4 km/h - N/A   Overcast
3:15 AM 41.0°F / 5.0°C 39.2°F / 4.0°C 93% 29.73 in / 1006.7 hPa 9.0 miles / 14.5 kilometers South 4.6 mph / 7.4 km/h - N/A   Overcast
3:35 AM 41.0°F / 5.0°C 39.2°F / 4.0°C 93% 29.73 in / 1006.7 hPa 10.0 miles / 16.1 kilometers South 4.6 mph / 7.4 km/h - N/A   Overcast
3:55 AM 41.0°F / 5.0°C 39.2°F / 4.0°C 93% 29.73 in / 1006.7 hPa 5.0 miles / 8.0 kilometers South 4.6 mph / 7.4 km/h - N/A   Overcast
4:15 AM 41.0°F / 5.0°C 39.2°F / 4.0°C 93% 29.73 in / 1006.7 hPa 10.0 miles / 16.1 kilometers South 5.8 mph / 9.3 km/h - N/A   Overcast
4:35 AM 41.0°F / 5.0°C 39.2°F / 4.0°C 93% 29.73 in / 1006.7 hPa 10.0 miles / 16.1 kilometers South 6.9 mph / 11.1 km/h - N/A   Overcast
4:55 AM 41.0°F / 5.0°C 39.2°F / 4.0°C 93% 29.73 in / 1006.7 hPa 10.0 miles / 16.1 kilometers South 8.1 mph / 13.0 km/h - N/A   Overcast
5:15 AM 41.0°F / 5.0°C 37.4°F / 3.0°C 87% 29.74 in / 1007.0 hPa 10.0 miles / 16.1 kilometers South 8.1 mph / 13.0 km/h - N/A   Overcast
5:35 AM 39.2°F / 4.0°C 37.4°F / 3.0°C 93% 29.74 in / 1007.0 hPa 6.0 miles / 9.7 kilometers SSW 4.6 mph / 7.4 km/h - 0.01 in / 0.3 cm   Overcast
5:55 AM 39.2°F / 4.0°C 39.2°F / 4.0°C 100% 29.74 in / 1007.0 hPa 10.0 miles / 16.1 kilometers South 6.9 mph / 11.1 km/h - 0.01 in / 0.3 cm   Overcast
6:15 AM 39.2°F / 4.0°C 39.2°F / 4.0°C 100% 29.74 in / 1007.0 hPa 6.0 miles / 9.7 kilometers SSE 8.1 mph / 13.0 km/h - N/A   Overcast
6:35 AM 39.2°F / 4.0°C 37.4°F / 3.0°C 93% 29.75 in / 1007.3 hPa 10.0 miles / 16.1 kilometers South 5.8 mph / 9.3 km/h - 0.01 in / 0.3 cm   Mostly Cloudy
6:55 AM 39.2°F / 4.0°C 37.4°F / 3.0°C 93% 29.76 in / 1007.7 hPa 10.0 miles / 16.1 kilometers SW 4.6 mph / 7.4 km/h - 0.01 in / 0.3 cm   Overcast
7:15 AM 39.2°F / 4.0°C 37.4°F / 3.0°C 93% 29.76 in / 1007.7 hPa 10.0 miles / 16.1 kilometers South 5.8 mph / 9.3 km/h - N/A   Overcast
7:35 AM 39.2°F / 4.0°C 37.4°F / 3.0°C 93% 29.77 in / 1008.0 hPa 10.0 miles / 16.1 kilometers South 8.1 mph / 13.0 km/h - N/A   Overcast
8:15 AM 39.2°F / 4.0°C 39.2°F / 4.0°C 100% 29.77 in / 1008.0 hPa 3.0 miles / 4.8 kilometers SSE 8.1 mph / 13.0 km/h - 0.01 in / 0.3 cm Rain Light Rain
8:35 AM 39.2°F / 4.0°C 39.2°F / 4.0°C 100% 29.78 in / 1008.4 hPa 10.0 miles / 16.1 kilometers South 9.2 mph / 14.8 km/h - 0.02 in / 0.5 cm   Overcast
8:55 AM 41.0°F / 5.0°C 39.2°F / 4.0°C 93% 29.79 in / 1008.7 hPa 3.0 miles / 4.8 kilometers South 9.2 mph / 14.8 km/h - 0.02 in / 0.5 cm   Overcast
9:15 AM 41.0°F / 5.0°C 39.2°F / 4.0°C 93% 29.80 in / 1009.0 hPa 10.0 miles / 16.1 kilometers South 8.1 mph / 13.0 km/h - N/A   Mostly Cloudy
9:35 AM 41.0°F / 5.0°C 39.2°F / 4.0°C 93% 29.80 in / 1009.0 hPa 10.0 miles / 16.1 kilometers South 9.2 mph / 14.8 km/h - N/A   Overcast
9:55 AM 41.0°F / 5.0°C 39.2°F / 4.0°C 93% 29.81 in / 1009.4 hPa 10.0 miles / 16.1 kilometers South 5.8 mph / 9.3 km/h - N/A   Overcast
10:15 AM 41.0°F / 5.0°C 39.2°F / 4.0°C 93% 29.82 in / 1009.7 hPa 10.0 miles / 16.1 kilometers South 6.9 mph / 11.1 km/h - N/A   Overcast
10:35 AM 41.0°F / 5.0°C 39.2°F / 4.0°C 93% 29.82 in / 1009.7 hPa 10.0 miles / 16.1 kilometers SSE 6.9 mph / 11.1 km/h - N/A   Overcast
10:55 AM 42.8°F / 6.0°C 41.0°F / 5.0°C 93% 29.82 in / 1009.7 hPa 9.0 miles / 14.5 kilometers SSE 10.4 mph / 16.7 km/h - N/A   Overcast
11:15 AM 42.8°F / 6.0°C 41.0°F / 5.0°C 93% 29.82 in / 1009.7 hPa 7.0 miles / 11.3 kilometers South 8.1 mph / 13.0 km/h - N/A   Overcast
11:35 AM 44.6°F / 7.0°C 39.2°F / 4.0°C 81% 29.82 in / 1009.7 hPa 8.0 miles / 12.9 kilometers SSE 9.2 mph / 14.8 km/h - N/A   Mostly Cloudy
11:55 AM 44.6°F / 7.0°C 39.2°F / 4.0°C 81% 29.82 in / 1009.7 hPa 6.0 miles / 9.7 kilometers South 10.4 mph / 16.7 km/h - N/A   Scattered Clouds
12:15 PM 44.6°F / 7.0°C 41.0°F / 5.0°C 87% 29.82 in / 1009.7 hPa 5.0 miles / 8.0 kilometers South 9.2 mph / 14.8 km/h - N/A   Mostly Cloudy
12:35 PM 44.6°F / 7.0°C 41.0°F / 5.0°C 87% 29.82 in / 1009.7 hPa 5.0 miles / 8.0 kilometers South 9.2 mph / 14.8 km/h - N/A   Overcast
12:55 PM 44.6°F / 7.0°C 41.0°F / 5.0°C 87% 29.82 in / 1009.7 hPa 4.0 miles / 6.4 kilometers South 8.1 mph / 13.0 km/h - N/A   Mostly Cloudy
1:15 PM 42.8°F / 6.0°C 41.0°F / 5.0°C 93% 29.82 in / 1009.7 hPa 9.0 miles / 14.5 kilometers South 8.1 mph / 13.0 km/h - 0.01 in / 0.3 cm   Mostly Cloudy
1:35 PM 42.8°F / 6.0°C 41.0°F / 5.0°C 93% 29.82 in / 1009.7 hPa 8.0 miles / 12.9 kilometers South 8.1 mph / 13.0 km/h - 0.01 in / 0.3 cm   Mostly Cloudy
1:55 PM 44.6°F / 7.0°C 41.0°F / 5.0°C 87% 29.82 in / 1009.7 hPa 5.0 miles / 8.0 kilometers South 9.2 mph / 14.8 km/h - 0.01 in / 0.3 cm   Mostly Cloudy
2:15 PM 44.6°F / 7.0°C 41.0°F / 5.0°C 87% 29.82 in / 1009.7 hPa 8.0 miles / 12.9 kilometers SSE 9.2 mph / 14.8 km/h - N/A   Mostly Cloudy
2:35 PM 44.6°F / 7.0°C 41.0°F / 5.0°C 87% 29.83 in / 1010.0 hPa 8.0 miles / 12.9 kilometers South 11.5 mph / 18.5 km/h - N/A   Overcast
2:55 PM 42.8°F / 6.0°C 41.0°F / 5.0°C 93% 29.83 in / 1010.0 hPa 4.0 miles / 6.4 kilometers South 11.5 mph / 18.5 km/h 16.1 mph / 25.9 km/h N/A   Overcast
3:15 PM 42.8°F / 6.0°C 41.0°F / 5.0°C 93% 29.84 in / 1010.4 hPa 7.0 miles / 11.3 kilometers South 8.1 mph / 13.0 km/h - N/A Rain Light Rain
3:35 PM 42.8°F / 6.0°C 41.0°F / 5.0°C 93% 29.85 in / 1010.7 hPa 4.0 miles / 6.4 kilometers South 8.1 mph / 13.0 km/h - N/A Rain Light Rain
4:15 PM 42.8°F / 6.0°C 41.0°F / 5.0°C 93% 29.86 in / 1011.1 hPa 8.0 miles / 12.9 kilometers South 6.9 mph / 11.1 km/h - 0.01 in / 0.3 cm   Overcast
4:35 PM 42.8°F / 6.0°C 41.0°F / 5.0°C 93% 29.86 in / 1011.1 hPa 5.0 miles / 8.0 kilometers SSE 8.1 mph / 13.0 km/h - 0.01 in / 0.3 cm   Overcast
4:55 PM 41.0°F / 5.0°C 41.0°F / 5.0°C 100% 29.87 in / 1011.4 hPa 10.0 miles / 16.1 kilometers SSW 6.9 mph / 11.1 km/h - 0.01 in / 0.3 cm   Overcast
5:15 PM 41.0°F / 5.0°C 41.0°F / 5.0°C 100% 29.87 in / 1011.4 hPa 5.0 miles / 8.0 kilometers South 5.8 mph / 9.3 km/h - N/A Rain Light Rain
5:35 PM 41.0°F / 5.0°C 41.0°F / 5.0°C 100% 29.88 in / 1011.7 hPa 10.0 miles / 16.1 kilometers South 8.1 mph / 13.0 km/h - N/A Rain Light Rain
5:55 PM 41.0°F / 5.0°C 41.0°F / 5.0°C 100% 29.88 in / 1011.7 hPa 9.0 miles / 14.5 kilometers SSE 6.9 mph / 11.1 km/h - N/A Rain Light Rain
6:15 PM 41.0°F / 5.0°C 41.0°F / 5.0°C 100% 29.88 in / 1011.7 hPa 10.0 miles / 16.1 kilometers South 6.9 mph / 11.1 km/h - N/A   Overcast
6:35 PM 41.0°F / 5.0°C 41.0°F / 5.0°C 100% 29.89 in / 1012.1 hPa 10.0 miles / 16.1 kilometers SSW 6.9 mph / 11.1 km/h - N/A   Overcast
6:55 PM 41.0°F / 5.0°C 39.2°F / 4.0°C 93% 29.89 in / 1012.1 hPa 9.0 miles / 14.5 kilometers SSW 8.1 mph / 13.0 km/h - N/A   Overcast
7:15 PM 41.0°F / 5.0°C 39.2°F / 4.0°C 93% 29.90 in / 1012.4 hPa 10.0 miles / 16.1 kilometers South 6.9 mph / 11.1 km/h - N/A Rain Light Rain
7:35 PM 41.0°F / 5.0°C 39.2°F / 4.0°C 93% 29.91 in / 1012.8 hPa 9.0 miles / 14.5 kilometers SSW 5.8 mph / 9.3 km/h - N/A   Overcast
7:55 PM 41.0°F / 5.0°C 39.2°F / 4.0°C 93% 29.91 in / 1012.8 hPa 7.0 miles / 11.3 kilometers SSW 6.9 mph / 11.1 km/h - 0.01 in / 0.3 cm   Overcast
8:15 PM 41.0°F / 5.0°C 39.2°F / 4.0°C 93% 29.91 in / 1012.8 hPa 9.0 miles / 14.5 kilometers South 6.9 mph / 11.1 km/h - N/A   Overcast
8:35 PM 41.0°F / 5.0°C 39.2°F / 4.0°C 93% 29.92 in / 1013.1 hPa 9.0 miles / 14.5 kilometers South 8.1 mph / 13.0 km/h - N/A   Overcast
8:55 PM 41.0°F / 5.0°C 39.2°F / 4.0°C 93% 29.93 in / 1013.4 hPa 10.0 miles / 16.1 kilometers South 6.9 mph / 11.1 km/h - N/A   Overcast
9:15 PM 41.0°F / 5.0°C 39.2°F / 4.0°C 93% 29.93 in / 1013.4 hPa 10.0 miles / 16.1 kilometers South 6.9 mph / 11.1 km/h - N/A   Overcast
9:35 PM 41.0°F / 5.0°C 39.2°F / 4.0°C 93% 29.94 in / 1013.8 hPa 7.0 miles / 11.3 kilometers SSE 8.1 mph / 13.0 km/h - N/A Rain Light Rain
9:55 PM 41.0°F / 5.0°C 39.2°F / 4.0°C 93% 29.95 in / 1014.1 hPa 10.0 miles / 16.1 kilometers South 6.9 mph / 11.1 km/h - N/A   Overcast
10:15 PM 41.0°F / 5.0°C 39.2°F / 4.0°C 93% 29.95 in / 1014.1 hPa 10.0 miles / 16.1 kilometers South 9.2 mph / 14.8 km/h - 0.01 in / 0.3 cm   Overcast
10:35 PM 41.0°F / 5.0°C 39.2°F / 4.0°C 93% 29.96 in / 1014.4 hPa 10.0 miles / 16.1 kilometers South 8.1 mph / 13.0 km/h - 0.01 in / 0.3 cm   Overcast
10:55 PM 41.0°F / 5.0°C 39.2°F / 4.0°C 93% 29.97 in / 1014.8 hPa 10.0 miles / 16.1 kilometers South 8.1 mph / 13.0 km/h - 0.01 in / 0.3 cm   Overcast
11:15 PM 41.0°F / 5.0°C 39.2°F / 4.0°C 93% 29.98 in / 1015.1 hPa 9.0 miles / 14.5 kilometers South 8.1 mph / 13.0 km/h - N/A Rain Light Rain
11:35 PM 41.0°F / 5.0°C 39.2°F / 4.0°C 93% 29.98 in / 1015.1 hPa 9.0 miles / 14.5 kilometers South 8.1 mph / 13.0 km/h - N/A   Overcast
11:55 PM 41.0°F / 5.0°C 39.2°F / 4.0°C 93% 29.98 in / 1015.1 hPa 10.0 miles / 16.1 kilometers South 6.9 mph / 11.1 km/h - N/A   Overcast
Moon Phase
Dec. 26 Dec. 28 Jan. 04 Jan. 11 Jan. 18
Sunrise:07:55 AM (PST) Moon Rise:03:29 PM (PST)12/26
Sunset:04:30 PM (PST) Moon Set:06:22 AM (PST)12/26

Copyright © 2014 The Weather Underground, Inc.